COSMOS 1348

导读

COSMOS 1348(宇宙1348)是1982年4月7日,由独联体(CIS前身苏联)发射的“宇宙”系列卫星。宇宙系列涵盖军事侦察、科学实验等多类任务,多数早期卫星任务细节未公开,部分型号搭载天文探测设备,也常承担军事观测任务。该卫星长期在近地轨道运行,作为苏联航天技术发展的见证,为空间技术积累与轨道验证贡献了数据,是冷战时期苏联航天活动的典型产物。

Basic Information
目录编号:
13124
目录名称:
COSMOS 1348
国际标识:
1982-029A
轨道中心:
EARTH
卫星名称:
COSMOS 1348
卫星全名:
--
卫星状态:
在轨 (已飞行16142 天)
发射日期:
1982-04-07 UTC
国别 :
俄罗斯(独联体) (CIS)
星等 :
--
Orbit Information
数据来源 国际轨道数据 AOE轨道数据
星历时间 2026-06-17T17:13:48+0800
10小时前
查看轨道信息
2026-06-17T03:00:00+0800
1天前
查看轨道信息
半长轴 26575.235km 26575.235km
偏心率 0.4851557 0.485183
轨道倾角 71.809° 71.809°
近地点辐角 332.330° 332.349°
升交点赤经 145.511° 145.532°
平近点角 113.087° 45.342°
近地点 7303.971km 7303.245km
远地点 33090.225km 33090.951km
周期 718.580分钟 718.580分钟
每日圈数 2.003951 2.003951
Detailed Information
使用方式:
暂无
2D Orbit Map
3D Orbit Map
Orbit Altitude Analysis Chart
Orbit Inclination Analysis Chart
Orbit Comprehensive Analysis Chart
View Comprehensive Chart